When you browse on this site, cookies collect data to enhance your experience and personalize the content and advertising you see.
Visit our Privacy Policy to learn more. By continuing to use the site, you agree to this use of cookies and data.
  • In Portugal
  • List of Countries
  • For 7 days
  • Water Temperature
  • Satellite Maps
  • Weather Map
  • Weather Widgets
  • user-avatar
    Login

    Hourly Weather Rawson

    Today, 15 December, Saturday

    Time Temperature Precipitation Wind Pressure Humidity
    00:00 +18°C° 0 mm 7 mps 756 mmHg 34%
    01:00 +18°C° 0 mm 8 mps 756 mmHg 34%
    02:00 +17°C° 0 mm 7 mps 756 mmHg 34%
    03:00 +16°C° 0 mm 8 mps 756 mmHg 35%
    04:00 +16°C° 0 mm 8 mps 756 mmHg 36%
    05:00 +16°C° 0 mm 8 mps 756 mmHg 37%
    06:00 +17°C° 0 mm 8 mps 756 mmHg 35%
    07:00 +18°C° 0 mm 9 mps 755 mmHg 33%
    08:00 +19°C° 0 mm 9 mps 755 mmHg 31%
    09:00 +22°C° 0 mm 8 mps 755 mmHg 28%
    10:00 +24°C° 0 mm 8 mps 755 mmHg 26%
    11:00 +26°C° 0 mm 8 mps 754 mmHg 23%
    12:00 +28°C° 0 mm 8 mps 753 mmHg 22%
    13:00 +29°C° 0 mm 8 mps 753 mmHg 20%
    14:00 +32°C° 0 mm 8 mps 752 mmHg 19%
    15:00 +32°C° 0 mm 8 mps 751 mmHg 18%
    16:00 +33°C° 0 mm 8 mps 751 mmHg 17%
    17:00 +33°C° 0 mm 8 mps 750 mmHg 17%
    18:00 +33°C° 0 mm 8 mps 750 mmHg 20%
    19:00 +32°C° 0 mm 7 mps 750 mmHg 23%
    20:00 +30°C° 0 mm 7 mps 749 mmHg 26%
    21:00 +29°C° 0 mm 7 mps 750 mmHg 27%
    22:00 +29°C° 0 mm 7 mps 750 mmHg 29%
    23:00 +28°C° 0 mm 7 mps 750 mmHg 31%

    Tomorrow, 16 December, Sunday

    Time Temperature Precipitation Wind Pressure Humidity
    00:00 +27°C° 0 mm 7 mps 750 mmHg 33%
    01:00 +27°C° 0 mm 8 mps 750 mmHg 35%
    02:00 +26°C° 0 mm 8 mps 750 mmHg 36%
    03:00 +24°C° 0 mm 7 mps 750 mmHg 37%
    04:00 +24°C° 0 mm 7 mps 750 mmHg 39%
    05:00 +23°C° 0 mm 6 mps 750 mmHg 40%
    06:00 +24°C° 0 mm 7 mps 750 mmHg 38%
    07:00 +24°C° 0 mm 8 mps 751 mmHg 35%
    08:00 +26°C° 0 mm 10 mps 752 mmHg 33%
    09:00 +24°C° 0 mm 10 mps 752 mmHg 31%
    10:00 +24°C° 0 mm 10 mps 752 mmHg 30%
    11:00 +24°C° 0 mm 10 mps 753 mmHg 28%
    12:00 +23°C° 0.1 mm 10 mps 754 mmHg 28%
    13:00 +22°C° 0.1 mm 10 mps 755 mmHg 28%
    14:00 +21°C° 0.1 mm 10 mps 755 mmHg 28%
    15:00 +21°C° 0 mm 10 mps 756 mmHg 28%
    16:00 +21°C° 0 mm 10 mps 757 mmHg 28%
    17:00 +21°C° 0 mm 10 mps 757 mmHg 29%
    18:00 +18°C° 0 mm 10 mps 758 mmHg 31%
    19:00 +17°C° 0 mm 9 mps 759 mmHg 34%
    20:00 +16°C° 0 mm 8 mps 760 mmHg 37%
    21:00 +16°C° 0 mm 7 mps 761 mmHg 38%
    22:00 +15°C° 0 mm 6 mps 762 mmHg 38%
    23:00 +14°C° 0 mm 5 mps 763 mmHg 39%

    Day after tomorrow, 17 December, Monday

    Time Temperature Precipitation Wind Pressure Humidity
    00:00 +14°C° 0 mm 4 mps 763 mmHg 42%
    01:00 +14°C° 0 mm 4 mps 763 mmHg 44%
    02:00 +13°C° 0 mm 4 mps 763 mmHg 47%
    03:00 +13°C° 0 mm 5 mps 763 mmHg 50%
    04:00 +13°C° 0 mm 5 mps 763 mmHg 53%
    05:00 +13°C° 0 mm 6 mps 764 mmHg 56%
    06:00 +14°C° 0 mm 7 mps 764 mmHg 51%
    07:00 +16°C° 0 mm 7 mps 764 mmHg 45%
    08:00 +17°C° 0 mm 8 mps 764 mmHg 40%
    09:00 +20°C° 0 mm 8 mps 764 mmHg 34%
    10:00 +22°C° 0 mm 7 mps 763 mmHg 27%
    11:00 +24°C° 0 mm 7 mps 763 mmHg 21%
    12:00 +26°C° 0 mm 7 mps 762 mmHg 19%
    13:00 +27°C° 0 mm 7 mps 762 mmHg 17%
    14:00 +28°C° 0 mm 6 mps 761 mmHg 14%
    15:00 +28°C° 0 mm 7 mps 761 mmHg 14%
    16:00 +29°C° 0 mm 7 mps 760 mmHg 13%
    17:00 +29°C° 0 mm 8 mps 759 mmHg 13%
    18:00 +28°C° 0 mm 8 mps 759 mmHg 16%
    19:00 +26°C° 0 mm 9 mps 759 mmHg 19%
    20:00 +24°C° 0 mm 10 mps 759 mmHg 23%
    21:00 +23°C° 0 mm 9 mps 759 mmHg 25%
    22:00 +22°C° 0 mm 9 mps 760 mmHg 28%
    23:00 +22°C° 0 mm 8 mps 760 mmHg 30%

    18 December, Tuesday

    Time Temperature Precipitation Wind Pressure Humidity
    00:00 +21°C° 0 mm 8 mps 760 mmHg 30%
    01:00 +21°C° 0 mm 7 mps 759 mmHg 30%
    02:00 +21°C° 0 mm 6 mps 759 mmHg 30%
    03:00 +20°C° 0 mm 5 mps 759 mmHg 30%
    04:00 +20°C° 0 mm 4 mps 759 mmHg 30%
    05:00 +20°C° 0 mm 3 mps 759 mmHg 30%
    06:00 +21°C° 0 mm 4 mps 759 mmHg 27%
    07:00 +23°C° 0 mm 4 mps 759 mmHg 23%
    08:00 +26°C° 0 mm 4 mps 759 mmHg 20%
    09:00 +27°C° 0 mm 4 mps 758 mmHg 17%
    10:00 +28°C° 0 mm 4 mps 758 mmHg 14%
    11:00 +30°C° 0 mm 4 mps 757 mmHg 12%
    12:00 +32°C° 0 mm 5 mps 757 mmHg 11%
    13:00 +33°C° 0 mm 5 mps 756 mmHg 10%
    14:00 +33°C° 0 mm 6 mps 755 mmHg 10%
    15:00 +34°C° 0 mm 5 mps 754 mmHg 10%
    16:00 +34°C° 0 mm 5 mps 753 mmHg 11%
    17:00 +34°C° 0 mm 5 mps 753 mmHg 11%
    18:00 +34°C° 0 mm 5 mps 752 mmHg 13%
    19:00 +33°C° 0 mm 5 mps 752 mmHg 14%
    20:00 +32°C° 0 mm 4 mps 751 mmHg 16%
    21:00 +30°C° 0 mm 5 mps 751 mmHg 18%
    22:00 +30°C° 0 mm 5 mps 751 mmHg 20%
    23:00 +29°C° 0 mm 5 mps 751 mmHg 23%

    19 December, Wednesday

    Time Temperature Precipitation Wind Pressure Humidity
    00:00 +28°C° 0 mm 5 mps 751 mmHg 26%
    01:00 +27°C° 0 mm 6 mps 751 mmHg 29%
    02:00 +27°C° 0 mm 6 mps 751 mmHg 31%
    03:00 +26°C° 0 mm 7 mps 751 mmHg 33%
    04:00 +24°C° 0 mm 7 mps 751 mmHg 35%
    05:00 +23°C° 0 mm 7 mps 751 mmHg 37%
    06:00 +23°C° 0 mm 8 mps 752 mmHg 38%
    07:00 +24°C° 0 mm 8 mps 752 mmHg 38%
    08:00 +24°C° 0 mm 9 mps 753 mmHg 39%
    09:00 +24°C° 0 mm 8 mps 753 mmHg 37%
    10:00 +24°C° 0 mm 8 mps 753 mmHg 35%
    11:00 +24°C° 0 mm 8 mps 753 mmHg 33%
    12:00 +24°C° 0.1 mm 8 mps 754 mmHg 33%
    13:00 +23°C° 0.1 mm 7 mps 754 mmHg 33%
    14:00 +23°C° 0.1 mm 7 mps 755 mmHg 34%
    15:00 +21°C° 0.6 mm 8 mps 756 mmHg 43%
    16:00 +19°C° 0.6 mm 10 mps 756 mmHg 53%
    17:00 +18°C° 0.6 mm 11 mps 757 mmHg 62%
    18:00 +17°C° 0.1 mm 11 mps 758 mmHg 64%
    19:00 +16°C° 0.1 mm 10 mps 759 mmHg 66%
    20:00 +14°C° 0.1 mm 10 mps 759 mmHg 68%
    21:00 +15°C° 0 mm 9 mps 760 mmHg 68%
    22:00 +15°C° 0 mm 8 mps 761 mmHg 68%
    23:00 +15°C° 0 mm 8 mps 762 mmHg 68%

    20 December, Thursday

    Time Temperature Precipitation Wind Pressure Humidity
    00:00 +14°C° 0 mm 6 mps 762 mmHg 70%
    01:00 +14°C° 0 mm 5 mps 762 mmHg 71%
    02:00 +13°C° 0 mm 3 mps 761 mmHg 73%
    03:00 +13°C° 0 mm 3 mps 761 mmHg 74%
    04:00 +14°C° 0 mm 2 mps 761 mmHg 74%
    05:00 +14°C° 0 mm 1 mps 761 mmHg 75%
    06:00 +15°C° 0 mm 2 mps 761 mmHg 66%
    07:00 +16°C° 0 mm 2 mps 761 mmHg 58%
    08:00 +17°C° 0 mm 3 mps 761 mmHg 49%
    09:00 +19°C° 0 mm 3 mps 760 mmHg 42%
    10:00 +21°C° 0 mm 3 mps 760 mmHg 35%
    11:00 +24°C° 0 mm 3 mps 759 mmHg 28%
    12:00 +26°C° 0 mm 4 mps 758 mmHg 25%
    13:00 +27°C° 0 mm 5 mps 757 mmHg 21%
    14:00 +29°C° 0 mm 6 mps 756 mmHg 18%
    15:00 +29°C° 0 mm 7 mps 756 mmHg 20%
    16:00 +29°C° 0 mm 7 mps 755 mmHg 21%
    17:00 +29°C° 0 mm 8 mps 754 mmHg 22%
    18:00 +28°C° 0 mm 9 mps 754 mmHg 27%
    19:00 +26°C° 0 mm 10 mps 753 mmHg 31%
    20:00 +23°C° 0 mm 11 mps 753 mmHg 36%
    21:00 +23°C° 0 mm 11 mps 753 mmHg 37%
    22:00 +22°C° 0 mm 10 mps 753 mmHg 39%
    23:00 +22°C° 0 mm 10 mps 752 mmHg 41%
    Show more